• In Moldova, Republic
  • List of Countries
  • For 7 days
  • Water Temperature
  • Satellite Maps
  • Weather Map
  • Weather Widgets
  • user-avatar
    Login

    Hourly Weather Canberra

    Today, 25 May, Thursday

    Time Temperature Precipitation Wind Pressure Humidity
    00:00 +6°C° 0 mm 1 mps 710 mmHg 96%
    01:00 +6°C° 0 mm 1 mps 710 mmHg 96%
    02:00 +6°C° 0 mm 1 mps 710 mmHg 96%
    03:00 +5°C° 0 mm 1 mps 711 mmHg 96%
    04:00 +5°C° 0 mm 1 mps 710 mmHg 95%
    05:00 +5°C° 0 mm 1 mps 711 mmHg 95%
    06:00 +5°C° 0 mm 1 mps 711 mmHg 95%
    07:00 +5°C° 0 mm 1 mps 711 mmHg 95%
    08:00 +7°C° 0 mm 1 mps 712 mmHg 85%
    09:00 +10°C° 0 mm 1 mps 712 mmHg 75%
    10:00 +12°C° 0 mm 1 mps 712 mmHg 67%
    11:00 +14°C° 0 mm 1 mps 712 mmHg 62%
    12:00 +15°C° 0 mm 1 mps 712 mmHg 56%
    13:00 +16°C° 0 mm 2 mps 711 mmHg 51%
    14:00 +16°C° 0 mm 2 mps 711 mmHg 55%
    15:00 +15°C° 0 mm 2 mps 711 mmHg 59%
    16:00 +14°C° 0 mm 2 mps 711 mmHg 67%
    17:00 +12°C° 0 mm 2 mps 711 mmHg 76%
    18:00 +9°C° 0 mm 2 mps 711 mmHg 84%
    19:00 +8°C° 0 mm 2 mps 711 mmHg 93%
    20:00 +7°C° 0 mm 2 mps 711 mmHg 94%
    21:00 +7°C° 0 mm 2 mps 711 mmHg 95%
    22:00 +6°C° 0 mm 1 mps 711 mmHg 97%
    23:00 +6°C° 0 mm 1 mps 711 mmHg 96%

    Tomorrow, 26 May, Friday

    Time Temperature Precipitation Wind Pressure Humidity
    00:00 +6°C° 0 mm 1 mps 711 mmHg 95%
    01:00 +6°C° 0 mm 1 mps 711 mmHg 95%
    02:00 +6°C° 0 mm 1 mps 711 mmHg 94%
    03:00 +6°C° 0 mm 1 mps 711 mmHg 93%
    04:00 +6°C° 0 mm 1 mps 711 mmHg 92%
    05:00 +5°C° 0 mm 1 mps 711 mmHg 92%
    06:00 +5°C° 0 mm 1 mps 711 mmHg 93%
    07:00 +5°C° 0 mm 1 mps 712 mmHg 93%
    08:00 +8°C° 0 mm 1 mps 712 mmHg 82%
    09:00 +11°C° 0 mm 1 mps 713 mmHg 72%
    10:00 +14°C° 0 mm 1 mps 713 mmHg 61%
    11:00 +15°C° 0 mm 1 mps 713 mmHg 57%
    12:00 +16°C° 0 mm 1 mps 713 mmHg 52%
    13:00 +19°C° 0 mm 1 mps 713 mmHg 48%
    14:00 +18°C° 0 mm 1 mps 712 mmHg 52%
    15:00 +16°C° 0 mm 1 mps 712 mmHg 57%
    16:00 +15°C° 0 mm 1 mps 712 mmHg 62%
    17:00 +13°C° 0 mm 1 mps 712 mmHg 73%
    18:00 +10°C° 0 mm 1 mps 712 mmHg 83%
    19:00 +8°C° 0 mm 1 mps 712 mmHg 94%
    20:00 +7°C° 0 mm 1 mps 712 mmHg 96%
    21:00 +7°C° 0 mm 1 mps 712 mmHg 97%
    22:00 +6°C° 0 mm 1 mps 712 mmHg 98%
    23:00 +6°C° 0 mm 1 mps 712 mmHg 98%

    Day after tomorrow, 27 May, Saturday

    Time Temperature Precipitation Wind Pressure Humidity
    00:00 +6°C° 0 mm 1 mps 712 mmHg 98%
    01:00 +6°C° 0 mm 1 mps 712 mmHg 99%
    02:00 +6°C° 0 mm 1 mps 712 mmHg 99%
    03:00 +6°C° 0 mm 1 mps 712 mmHg 99%
    04:00 +6°C° 0 mm 1 mps 711 mmHg 99%
    05:00 +6°C° 0 mm 1 mps 711 mmHg 99%
    06:00 +6°C° 0 mm 1 mps 711 mmHg 99%
    07:00 +6°C° 0 mm 1 mps 712 mmHg 99%
    08:00 +8°C° 0 mm 1 mps 712 mmHg 92%
    09:00 +10°C° 0 mm 1 mps 712 mmHg 85%
    10:00 +12°C° 0 mm 1 mps 712 mmHg 78%
    11:00 +14°C° 0 mm 1 mps 712 mmHg 69%
    12:00 +15°C° 0 mm 2 mps 711 mmHg 61%
    13:00 +16°C° 0 mm 2 mps 710 mmHg 53%
    14:00 +16°C° 0 mm 2 mps 710 mmHg 56%
    15:00 +15°C° 0 mm 2 mps 709 mmHg 58%
    16:00 +15°C° 0 mm 2 mps 709 mmHg 61%
    17:00 +13°C° 0 mm 2 mps 709 mmHg 71%
    18:00 +9°C° 0 mm 2 mps 709 mmHg 80%
    19:00 +8°C° 0 mm 1 mps 709 mmHg 90%
    20:00 +8°C° 0 mm 1 mps 709 mmHg 91%
    21:00 +7°C° 0 mm 2 mps 709 mmHg 91%
    22:00 +6°C° 0 mm 2 mps 709 mmHg 92%
    23:00 +6°C° 0 mm 2 mps 708 mmHg 92%

    28 May, Sunday

    Time Temperature Precipitation Wind Pressure Humidity
    00:00 +6°C° 0 mm 2 mps 708 mmHg 92%
    01:00 +6°C° 0 mm 2 mps 707 mmHg 92%
    02:00 +6°C° 0 mm 2 mps 707 mmHg 92%
    03:00 +6°C° 0 mm 2 mps 707 mmHg 92%
    04:00 +6°C° 0 mm 2 mps 706 mmHg 93%
    05:00 +6°C° 0 mm 2 mps 706 mmHg 92%
    06:00 +6°C° 0 mm 2 mps 706 mmHg 91%
    07:00 +7°C° 0 mm 2 mps 706 mmHg 91%
    08:00 +8°C° 0 mm 3 mps 706 mmHg 84%
    09:00 +10°C° 0 mm 4 mps 706 mmHg 78%
    10:00 +11°C° 0 mm 4 mps 707 mmHg 71%
    11:00 +12°C° 0 mm 5 mps 706 mmHg 67%
    12:00 +13°C° 0 mm 5 mps 706 mmHg 64%
    13:00 +13°C° 0 mm 5 mps 706 mmHg 60%
    14:00 +12°C° 0.1 mm 5 mps 706 mmHg 65%
    15:00 +12°C° 0.1 mm 5 mps 705 mmHg 70%
    16:00 +11°C° 0.1 mm 4 mps 705 mmHg 75%
    17:00 +8°C° 0 mm 4 mps 706 mmHg 80%
    18:00 +8°C° 0 mm 3 mps 706 mmHg 84%
    19:00 +7°C° 0 mm 3 mps 706 mmHg 88%
    20:00 +6°C° 0 mm 2 mps 707 mmHg 88%
    21:00 +6°C° 0 mm 2 mps 707 mmHg 89%
    22:00 +6°C° 0 mm 2 mps 707 mmHg 89%
    23:00 +4°C° 0 mm 3 mps 707 mmHg 88%

    29 May, Monday

    Time Temperature Precipitation Wind Pressure Humidity
    00:00 +4°C° 0 mm 3 mps 707 mmHg 88%
    01:00 +4°C° 0 mm 3 mps 707 mmHg 87%
    02:00 +4°C° 0 mm 3 mps 707 mmHg 87%
    03:00 +4°C° 0 mm 3 mps 707 mmHg 87%
    04:00 +4°C° 0 mm 3 mps 707 mmHg 86%
    05:00 +4°C° 0 mm 3 mps 708 mmHg 86%
    06:00 +4°C° 0 mm 3 mps 708 mmHg 85%
    07:00 +4°C° 0 mm 3 mps 709 mmHg 84%
    08:00 +5°C° 0 mm 3 mps 709 mmHg 75%
    09:00 +7°C° 0 mm 3 mps 710 mmHg 67%
    10:00 +7°C° 0 mm 4 mps 710 mmHg 58%
    11:00 +8°C° 0 mm 4 mps 710 mmHg 55%
    12:00 +10°C° 0 mm 4 mps 710 mmHg 51%
    13:00 +10°C° 0 mm 4 mps 710 mmHg 47%
    14:00 +10°C° 0 mm 4 mps 710 mmHg 50%
    15:00 +9°C° 0 mm 3 mps 710 mmHg 53%
    16:00 +9°C° 0 mm 3 mps 710 mmHg 57%
    17:00 +7°C° 0 mm 3 mps 710 mmHg 66%
    18:00 +5°C° 0 mm 2 mps 711 mmHg 75%
    19:00 +3°C° 0 mm 2 mps 711 mmHg 85%
    20:00 +3°C° 0 mm 2 mps 711 mmHg 86%
    21:00 +2°C° 0 mm 2 mps 711 mmHg 88%
    22:00 +2°C° 0 mm 2 mps 711 mmHg 90%
    23:00 +1°C° 0 mm 2 mps 711 mmHg 90%

    30 May, Tuesday

    Time Temperature Precipitation Wind Pressure Humidity
    00:00 +1°C° 0 mm 2 mps 711 mmHg 89%
    01:00 +1°C° 0 mm 2 mps 711 mmHg 89%
    02:00 +1°C° 0 mm 2 mps 711 mmHg 89%
    03:00 +1°C° 0 mm 2 mps 711 mmHg 89%
    04:00 +1°C° 0 mm 2 mps 711 mmHg 89%
    05:00 +1°C° 0 mm 2 mps 711 mmHg 88%
    06:00 +2°C° 0 mm 2 mps 711 mmHg 88%
    07:00 +2°C° 0 mm 2 mps 711 mmHg 87%
    08:00 +3°C° 0 mm 3 mps 711 mmHg 81%
    09:00 +5°C° 0 mm 3 mps 711 mmHg 75%
    10:00 +8°C° 0 mm 4 mps 711 mmHg 70%
    11:00 +8°C° 0 mm 4 mps 711 mmHg 69%
    12:00 +9°C° 0 mm 5 mps 710 mmHg 69%
    13:00 +9°C° 0 mm 5 mps 710 mmHg 68%
    14:00 +9°C° 0 mm 5 mps 709 mmHg 71%
    15:00 +9°C° 0 mm 5 mps 709 mmHg 73%
    16:00 +8°C° 0 mm 4 mps 709 mmHg 76%
    17:00 +8°C° 0 mm 4 mps 709 mmHg 77%
    18:00 +8°C° 0 mm 4 mps 709 mmHg 79%
    19:00 +8°C° 0 mm 4 mps 709 mmHg 80%
    20:00 +8°C° 0 mm 4 mps 709 mmHg 80%
    21:00 +8°C° 0 mm 4 mps 709 mmHg 79%
    22:00 +8°C° 0 mm 4 mps 709 mmHg 79%
    23:00 +7°C° 0.2 mm 4 mps 708 mmHg 82%
    Show more